[[{"header":{"parameterUnit":"m.s-1","parameterCategory":2,"la1":30.2991,"la2":30.254,"lo1":-89.0895,"lo2":-89.0444,"dx":0.0017,"dy":0.0017,"nx":28,"ny":28,"refTime":"2022-12-24T09:00:00:Z","depth":"0","parameterNumber":2,"parameterNumberName":"U-component_of_CURRENTS"},"data":[0,0,0,0,0,0,0,0,0,0,0,0,0,0,0,0,0,0,0,0,0,0,0,0,0,0,0,0,0,0,0,0,0,0,0,0,0,0,0,0,0,0,0,0,0,0,0,0,0,0,0,0,0,0,0,0,0,0,0.2914,0.2914,0,0.2908,0.2908,0.2908,0.2872,0.2872,0.2871,0.2871,0.284,0.284,0.284,0,0,0,0,0,0,0,0,0,0,0,0,0,0.29,0.29,0.2914,0.2914,0.2914,0.2908,0.2908,0.2908,0.2873,0.2872,0.2871,0.287,0.284,0.284,0.284,0,0,0,0,0,0,0,0,0,0,0,0,0,0.2898,0.29,0.2914,0.2898,0.2897,0.2908,0.2908,0.2907,0.2873,0.2872,0.2871,0.287,0.2841,0.284,0.284,0.2855,0,0,0.2839,0.2838,0,0,0,0,0,0,0,0,0.2898,0.2899,0.29,0.29,0.2898,0.2893,0.2892,0.289,0.2873,0.2879,0.2871,0.287,0.2858,0.2856,0.2853,0.2854,0.2852,0.2839,0.2838,0.2838,0.2838,0,0,0,0,0,0,0,0.2899,0.2899,0.2909,0.2901,0.2899,0.2894,0.2892,0.2891,0.2871,0.2878,0.2877,0.2881,0.2857,0.2854,0.2852,0.2852,0.2839,0.2838,0.2838,0.2838,0.2885,0.2887,0,0,0,0,0,0,0.2906,0.2899,0.2909,0.2909,0.2899,0.2895,0.2893,0.2893,0.2871,0.2868,0.2882,0.2879,0.2855,0.2853,0.2851,0.2885,0.2838,0.2838,0.2838,0.2884,0.2885,0.2887,0,0,0,0,0,0,0.2906,0.2907,0.2909,0.2906,0.2906,0.2896,0.2896,0.2893,0.2895,0.2875,0.287,0.2887,0.2854,0.2852,0.2862,0.2882,0.2838,0.2837,0.2882,0.2884,0.2886,0.2941,0,0,0,0,0,0,0.2905,0.2907,0.2912,0.2907,0.2907,0.2926,0.2898,0.2894,0.29,0.2897,0.2878,0.2874,0.2853,0.2863,0.2861,0.2881,0.2837,0.288,0.2883,0.2886,0.2937,0.2945,0.2951,0,0,0,0,0,0.2905,0.2915,0.2912,0.2914,0.2914,0.2928,0.2927,0.2915,0.2901,0.291,0.2898,0.2874,0.2879,0.2864,0.2862,0.2882,0.2879,0.2882,0.2885,0.2934,0.2943,0.2951,0,0,0,0,0,0,0.2909,0.2912,0.2909,0.2919,0.2929,0.2923,0.2931,0.2924,0.2922,0.2917,0.2892,0.2888,0.2907,0.2892,0.2875,0.2906,0.2876,0.2879,0.2914,0.2922,0.2929,0.2942,0.2837,0,0,0,0,0,0.2916,0.2923,0.2929,0.2938,0.2946,0.2942,0.2946,0.294,0.2938,0.2935,0.2922,0.2915,0.2921,0.2918,0.2919,0.2934,0.2936,0.2948,0.2955,0.296,0.2971,0.2998,0.3009,0.2898,0.2898,0.2898,0,0,0.2919,0.2923,0.2926,0.294,0.2944,0.2958,0.2941,0.2955,0.2964,0.2934,0.2942,0.2941,0.2933,0.295,0.2957,0.2938,0.2994,0.2965,0.297,0.2978,0.3003,0.3014,0.3023,0.29,0.29,0.29,0,0,0.2926,0.2937,0.2943,0.2958,0.2974,0.2976,0.2985,0.2988,0.299,0.3003,0.2989,0.3006,0.2999,0.3005,0.3005,0.3055,0.3034,0.3051,0.309,0.3116,0.3126,0.3134,0.3152,0.3162,0.3049,0.3049,0.3049,0,0.2932,0.294,0.295,0.2965,0.2981,0.2987,0.3004,0.3012,0.3017,0.3029,0.3012,0.3036,0.3029,0.3063,0.3079,0.3071,0.3078,0.3055,0.3125,0.3133,0.3141,0.3158,0.3167,0.3052,0.3052,0.3052,0.3051,0,0.2944,0.2955,0.2967,0.2986,0.3006,0.3026,0.3044,0.3063,0.3066,0.3071,0.3108,0.3108,0.3122,0.3126,0.3115,0.3168,0.3154,0.3134,0.3102,0.3155,0.317,0.3179,0.3057,0.3056,0.3055,0.3054,0,0,0.2937,0.2967,0.297,0.2977,0.3021,0.3029,0.3071,0.3104,0.3128,0.3142,0.3176,0.3198,0.3204,0.3207,0.3204,0.3227,0.3286,0.3205,0.3205,0.3221,0.3342,0.331,0.3316,0.3275,0.3277,0.3278,0.3332,0,0.2943,0.2963,0.2986,0.3008,0.3022,0.3059,0.3094,0.3127,0.3158,0.3194,0.3219,0.3247,0.3232,0.3246,0.3272,0.3289,0.3312,0.3273,0.3291,0.3292,0.3255,0.3327,0.3241,0.328,0.3341,0.3342,0.3343,0,0.294,0.2956,0.2976,0.3013,0.3024,0.3043,0.3105,0.3139,0.3208,0.3233,0.3282,0.3301,0.3358,0.3327,0.3388,0.3363,0.3362,0.3365,0.3367,0.3325,0.3277,0.3237,0.3294,0.3278,0.3356,0.3355,0.3354,0,0.2906,0.2944,0.2954,0.2969,0.3018,0.3039,0.3075,0.3147,0.3193,0.3267,0.331,0.3366,0.3408,0.3425,0.3447,0.3421,0.3503,0.3462,0.3432,0.3429,0.3355,0.3342,0.3395,0.3501,0.3501,0.35,0.35,0,0.2894,0.29,0.2934,0.2937,0.2963,0.3011,0.3059,0.3109,0.3201,0.3253,0.3324,0.338,0.3437,0.349,0.3481,0.3499,0.3533,0.3462,0.3451,0.3371,0.336,0.3339,0.3327,0.3502,0.3502,0.3502,0.3501,0,0.2846,0.2869,0.2882,0.2928,0.2941,0.2961,0.3049,0.3083,0.3182,0.3262,0.3292,0.3418,0.3486,0.3532,0.3576,0.355,0.3482,0.3546,0.345,0.3427,0.3362,0.3355,0.3234,0.3126,0.3523,0.3522,0.3522,0,0.2822,0.2819,0.286,0.2864,0.2881,0.2923,0.2948,0.3054,0.3103,0.327,0.3296,0.3425,0.3489,0.3571,0.3561,0.3565,0.3467,0.3467,0.34,0.3373,0.3357,0.3209,0.3115,0.3324,0.3322,0.3321,0.332,0,0.2778,0.279,0.2801,0.2812,0.2826,0.2853,0.2905,0.2945,0.3067,0.3148,0.3253,0.3336,0.3462,0.3456,0.3497,0.3478,0.334,0.3434,0.3434,0.3242,0.3056,0.2941,0.3275,0.3306,0.3307,0.3308,0.3309,0.331,0.2743,0.2739,0.2745,0.2746,0.2759,0.2757,0.2749,0.2816,0.2881,0.2974,0.3126,0.3216,0.3346,0.3406,0.3356,0.3306,0.3246,0.3237,0.3243,0.3103,0.296,0.3268,0.3266,0.3267,0.3268,0.3269,0.3269,0,0.2677,0.2671,0.2673,0.2657,0.2624,0.2665,0.2685,0.2658,0.267,0.2828,0.2911,0.3082,0.3122,0.3195,0.3242,0.3167,0.2967,0.3096,0.2894,0.2816,0.3139,0.3096,0.3023,0.3023,0.3023,0.3023,0.3023,0.3023,0.2641,0.2603,0.2594,0.2512,0.2496,0.2416,0.2399,0.2386,0.2461,0.2548,0.2665,0.2818,0.3108,0.3259,0.3235,0.3131,0.2911,0.2778,0.2741,0.3045,0.3059,0.3072,0.3031,0.2945,0.2945,0.2288,0.2283,0.228]},{"header":{"parameterUnit":"m.s-1","parameterCategory":2,"la1":30.2991,"la2":30.254,"lo1":-89.0895,"lo2":-89.0444,"dx":0.0017,"dy":0.0017,"nx":28,"ny":28,"refTime":"2022-12-24T09:00:00:Z","depth":"0","parameterNumber":3,"parameterNumberName":"V-component_of_CURRENTS"},"data":[0,0,0,0,0,0,0,0,0,0,0,0,0,0,0,0,0,0,0,0,0,0,0,0,0,0,0,0,0,0,0,0,0,0,0,0,0,0,0,0,0,0,0,0,0,0,0,0,0,0,0,0,0,0,0,0,0,0,0.007,0.007,0,0.0027,0.0026,0.0025,-0.001,-0.001,-0.001,-0.001,-0.0067,-0.0068,-0.0069,0,0,0,0,0,0,0,0,0,0,0,0,0,0.007,0.007,0.007,0.007,0.007,0.0027,0.0026,0.0025,-0.001,-0.001,-0.001,-0.0011,-0.0066,-0.0068,-0.0069,0,0,0,0,0,0,0,0,0,0,0,0,0,0.0051,0.0071,0.0071,0.0048,0.0046,0.0027,0.0026,0.0025,-0.001,-0.001,-0.001,-0.0011,-0.0066,-0.0068,-0.007,-0.0076,0,0,-0.0076,-0.0077,0,0,0,0,0,0,0,0,0.0052,0.0051,0.0052,0.005,0.0047,0.0015,0.0005,-0.0009,-0.001,0.001,-0.001,-0.0011,-0.0039,-0.0043,-0.0053,-0.0079,-0.0081,-0.0076,-0.0077,-0.0078,-0.0078,0,0,0,0,0,0,0,0.0054,0.0052,0.0051,0.0052,0.0049,0.0022,0.002,0.0002,-0.0014,0.0008,0.0006,0.0004,-0.0041,-0.0051,-0.0055,-0.0082,-0.0076,-0.0078,-0.0079,-0.008,-0.0116,-0.0116,0,0,0,0,0,0,0.0066,0.0054,0.0053,0.005,0.0051,0.0023,0.002,0.0024,-0.0014,-0.0019,0.0004,0.0002,-0.0048,-0.0053,-0.0057,-0.0052,-0.0078,-0.008,-0.0081,-0.0116,-0.0116,-0.0116,0,0,0,0,0,0,0.0066,0.0067,0.0054,0.0052,0.0049,0.0024,0.0029,0.0024,0.0017,-0.0016,-0.0023,0.0003,-0.0048,-0.0054,-0.0066,-0.0055,-0.0081,-0.0082,-0.0117,-0.0116,-0.0116,-0.0051,0,0,0,0,0,0,0.0067,0.0067,0.0074,0.0053,0.0049,0.0053,0.0029,0.0023,0.0017,0.0014,-0.0019,-0.0025,-0.0049,-0.0063,-0.0068,-0.0058,-0.0084,-0.0117,-0.0116,-0.0116,-0.0053,-0.0048,-0.0044,0,0,0,0,0,0.0067,0.0081,0.0075,0.0074,0.006,0.0054,0.005,0.0029,0.0017,0.0021,-0.0003,-0.0024,-0.0064,-0.0064,-0.007,-0.006,-0.0117,-0.0117,-0.0116,-0.0055,-0.0049,-0.0044,0,0,0,0,0,0,0.0085,0.0079,0.0071,0.0083,0.0074,0.0049,0.0052,0.0036,0.0019,0.0016,-0.0018,-0.0025,-0.0034,-0.0056,-0.0055,-0.0071,-0.0095,-0.0096,-0.0047,-0.0041,-0.0037,-0.0014,-0.0086,0,0,0,0,0,0.0093,0.0104,0.009,0.01,0.0099,0.0076,0.0071,0.0057,0.004,0.0032,0.0007,-0.0019,-0.0038,-0.0046,-0.0069,-0.0072,-0.0098,-0.0072,-0.0068,-0.0063,-0.005,-0.0082,-0.0079,-0.0114,-0.0114,-0.0114,0,0,0.0102,0.0101,0.0106,0.0105,0.0096,0.0106,0.0072,0.0072,0.0079,0.0029,0.003,-0.0004,-0.0037,-0.0044,-0.0049,-0.0059,-0.0068,-0.0063,-0.0059,-0.0047,-0.0081,-0.0078,-0.0074,-0.0114,-0.0114,-0.0114,0,0,0.0133,0.0128,0.0149,0.0145,0.014,0.013,0.0134,0.0113,0.0104,0.0097,0.0063,0.0041,0.001,-0.0009,-0.0023,-0.0006,-0.0045,-0.0019,0.0028,-0.0003,-0.0,0.0002,-0.0029,-0.003,-0.0013,-0.0013,-0.0013,0,0.0145,0.0172,0.0153,0.0171,0.0177,0.0147,0.017,0.0158,0.0135,0.0133,0.0107,0.0061,0.0029,0.0027,0.0029,0.0007,-0.002,0.0012,0.0004,0.0006,0.0007,-0.0025,-0.0027,-0.001,-0.001,-0.001,-0.0011,0,0.0191,0.021,0.0224,0.0241,0.0241,0.0257,0.0241,0.0242,0.0223,0.0202,0.0187,0.0136,0.0113,0.0093,0.0066,0.0062,0.0037,0.0012,-0.0006,0.0015,-0.0021,-0.0024,-0.0005,-0.0006,-0.0007,-0.0008,0,0,0.0228,0.0254,0.0259,0.0281,0.0281,0.0291,0.0308,0.0316,0.0335,0.0289,0.0302,0.0249,0.0212,0.0194,0.015,0.012,0.0098,0.0075,0.0072,0.0053,0.0027,0.0002,-0.0004,0.0068,0.0068,0.0068,-0.0002,0,0.0275,0.0329,0.0324,0.0376,0.0405,0.0387,0.0411,0.0407,0.039,0.0393,0.0332,0.0319,0.0254,0.0241,0.0202,0.0128,0.0093,0.0119,0.0004,0.0,-0.0018,-0.0007,-0.0008,-0.0071,-0.0005,-0.0006,-0.0006,0,0.0328,0.0359,0.0419,0.046,0.0471,0.0492,0.0527,0.0545,0.0534,0.0517,0.0484,0.0428,0.0383,0.0319,0.0206,0.0225,0.0136,0.0068,0.0063,0.0019,-0.003,-0.0082,-0.008,-0.0276,-0.0011,-0.0011,-0.0011,0,0.0377,0.0427,0.0483,0.0494,0.0531,0.0556,0.0577,0.0583,0.0617,0.0596,0.0608,0.0525,0.0499,0.0379,0.0228,0.0218,0.0095,0.0063,-0.0044,-0.0047,-0.008,-0.0085,-0.0271,-0.0018,-0.0018,-0.0018,-0.0018,0,0.0435,0.0477,0.0513,0.0541,0.062,0.0615,0.0689,0.0697,0.0718,0.0772,0.0679,0.0695,0.0512,0.0414,0.0264,0.0105,0.0119,-0.0028,-0.0063,-0.0058,-0.0061,-0.0259,-0.0382,-0.0021,-0.002,-0.0019,-0.0019,0,0.0484,0.0505,0.0574,0.0623,0.0648,0.0704,0.0778,0.0828,0.0835,0.0904,0.0902,0.0825,0.0702,0.0505,0.0308,0.0166,-0.011,-0.0064,-0.0046,-0.0078,-0.0347,-0.0466,-0.0652,-0.0738,-0.0178,-0.0179,-0.018,0,0.0514,0.0557,0.064,0.0691,0.0717,0.0798,0.0861,0.0892,0.0953,0.0993,0.1037,0.0933,0.089,0.0586,0.0298,0.003,-0.0151,-0.0151,-0.0169,-0.036,-0.0518,-0.0566,-0.0629,-0.0193,-0.0194,-0.0195,-0.0195,0,0.0575,0.0604,0.0661,0.0772,0.0845,0.0943,0.1031,0.11,0.1152,0.121,0.1258,0.1223,0.0933,0.0664,0.0283,0.0083,-0.0291,-0.0172,-0.0378,-0.055,-0.0606,-0.0707,-0.0155,-0.0202,-0.0201,-0.0201,-0.02,-0.02,0.062,0.0675,0.0754,0.0862,0.0953,0.1074,0.1168,0.1263,0.1385,0.1483,0.143,0.1422,0.1013,0.0501,0.0196,-0.0356,-0.0349,-0.0515,-0.0643,-0.0672,-0.076,-0.0219,-0.03,-0.03,-0.03,-0.03,-0.03,0,0.0678,0.074,0.0837,0.0964,0.1071,0.1114,0.1274,0.1377,0.1532,0.1612,0.165,0.1439,0.0945,0.0427,-0.0302,-0.0727,-0.0862,-0.0982,-0.1069,-0.1111,-0.064,-0.0645,-0.0794,-0.0794,-0.0794,-0.0794,-0.0793,-0.0793,0.0709,0.0808,0.086,0.1044,0.1135,0.1297,0.1398,0.1548,0.1654,0.1753,0.1743,0.1689,0.1279,-0.0006,-0.0938,-0.119,-0.1478,-0.1562,-0.1704,-0.1418,-0.1384,-0.1352,-0.1385,-0.1687,-0.1688,-0.2088,-0.2093,-0.2096]}],[{"header":{"parameterUnit":"m.s-1","parameterCategory":2,"la1":30.2991,"la2":30.254,"lo1":-89.0895,"lo2":-89.0444,"dx":0.0017,"dy":0.0017,"nx":28,"ny":28,"refTime":"2022-12-24T09:00:00:Z","depth":"2","parameterNumber":2,"parameterNumberName":"U-component_of_CURRENTS"},"data":[0,0,0,0,0,0,0,0,0,0,0,0,0,0,0,0,0,0,0,0,0,0,0,0,0,0,0,0,0,0,0,0,0,0,0,0,0,0,0,0,0,0,0,0,0,0,0,0,0,0,0,0,0,0,0,0,0,0,0.2777,0.2778,0,0.2776,0.2776,0.2775,0.275,0.2749,0.2749,0.2749,0.2728,0.2727,0.2727,0,0,0,0,0,0,0,0,0,0,0,0,0,0.2761,0.2761,0.2777,0.2778,0.2778,0.2776,0.2775,0.2775,0.275,0.2749,0.2749,0.2748,0.2728,0.2727,0.2727,0,0,0,0,0,0,0,0,0,0,0,0,0,0.2762,0.2761,0.2777,0.2767,0.2766,0.2776,0.2775,0.2775,0.275,0.2749,0.2749,0.2748,0.2728,0.2728,0.2727,0.2737,0,0,0.2726,0.2726,0,0,0,0,0,0,0,0,0.2762,0.2762,0.2768,0.2768,0.2767,0.2765,0.2762,0.2762,0.275,0.2753,0.2749,0.2748,0.2741,0.2739,0.2736,0.2736,0.2735,0.2726,0.2726,0.2726,0.2726,0,0,0,0,0,0,0,0.2762,0.2762,0.2774,0.2769,0.2768,0.2764,0.2763,0.2762,0.2747,0.2753,0.2752,0.2756,0.274,0.2737,0.2736,0.2735,0.2726,0.2726,0.2726,0.2726,0.2775,0.2776,0,0,0,0,0,0,0.2768,0.2762,0.2774,0.2774,0.2766,0.2765,0.2763,0.2764,0.2748,0.2746,0.2757,0.2755,0.2737,0.2736,0.2735,0.2773,0.2726,0.2726,0.2725,0.2773,0.2775,0.2777,0,0,0,0,0,0,0.2768,0.2769,0.2774,0.277,0.2771,0.2766,0.2766,0.2764,0.277,0.2752,0.2749,0.2766,0.2737,0.2735,0.2748,0.2771,0.2726,0.2725,0.2772,0.2774,0.2776,0.2832,0,0,0,0,0,0,0.2767,0.2769,0.2776,0.2771,0.2772,0.2792,0.2767,0.2765,0.2775,0.2773,0.2759,0.2756,0.2736,0.2749,0.2748,0.277,0.2725,0.277,0.2773,0.2775,0.2828,0.2835,0.2842,0,0,0,0,0,0.2767,0.2777,0.2777,0.2779,0.278,0.2793,0.2793,0.2785,0.2776,0.2787,0.2778,0.2756,0.2766,0.275,0.2749,0.277,0.2768,0.2772,0.2775,0.2825,0.2834,0.2842,0,0,0,0,0,0,0.2772,0.2775,0.2775,0.2785,0.2796,0.279,0.2801,0.2796,0.2798,0.2796,0.2774,0.2771,0.2793,0.2778,0.2761,0.2795,0.2765,0.2768,0.2803,0.2812,0.2818,0.2831,0.2725,0,0,0,0,0,0.2779,0.2787,0.2793,0.2803,0.2812,0.281,0.2816,0.2813,0.2813,0.2813,0.2803,0.2798,0.2805,0.2805,0.2807,0.2823,0.2824,0.2838,0.2845,0.2851,0.2862,0.2887,0.2897,0.2788,0.2788,0.2788,0,0,0.2783,0.2788,0.2791,0.2806,0.2812,0.2825,0.2812,0.2828,0.2839,0.2811,0.2824,0.2825,0.2818,0.2837,0.2845,0.2826,0.2884,0.2855,0.286,0.2868,0.2892,0.2902,0.2912,0.279,0.279,0.2789,0,0,0.2791,0.2803,0.2811,0.2826,0.2845,0.2847,0.2857,0.2862,0.2867,0.2883,0.2871,0.2891,0.2887,0.2893,0.2894,0.2944,0.2924,0.2942,0.2981,0.3006,0.3015,0.3023,0.3041,0.305,0.294,0.294,0.294,0,0.2799,0.2807,0.2818,0.2834,0.285,0.2859,0.2876,0.2886,0.2894,0.2908,0.2895,0.2922,0.2916,0.295,0.2968,0.296,0.2967,0.2947,0.3015,0.3023,0.303,0.3046,0.3055,0.2943,0.2943,0.2943,0.2943,0,0.2811,0.2825,0.2836,0.2857,0.2877,0.2898,0.2917,0.2938,0.2946,0.2953,0.2993,0.2994,0.301,0.3015,0.3005,0.3058,0.3044,0.3024,0.2992,0.3045,0.3058,0.3066,0.2948,0.2947,0.2946,0.2945,0,0,0.2807,0.2837,0.2841,0.285,0.2894,0.2903,0.2946,0.298,0.3005,0.3023,0.3059,0.3083,0.3092,0.3095,0.3093,0.3115,0.3174,0.3095,0.3095,0.311,0.3228,0.3191,0.3197,0.3164,0.3166,0.3167,0.3217,0,0.2814,0.2836,0.2858,0.2883,0.2897,0.2935,0.2969,0.3004,0.3038,0.3075,0.3101,0.3132,0.3119,0.3137,0.3161,0.3177,0.3199,0.3162,0.3178,0.3178,0.3137,0.3207,0.2928,0.2947,0.3226,0.3227,0.3228,0,0.2813,0.283,0.2852,0.2889,0.2901,0.2922,0.2985,0.302,0.3089,0.3117,0.3167,0.3188,0.3244,0.3215,0.3274,0.3251,0.325,0.3252,0.3253,0.3206,0.3158,0.294,0.2952,0.3242,0.3241,0.324,0.3239,0,0.2783,0.2821,0.2834,0.285,0.2898,0.2922,0.2959,0.3031,0.3077,0.3153,0.3197,0.3253,0.3296,0.3312,0.3333,0.3309,0.3386,0.3345,0.3309,0.3306,0.3066,0.3039,0.3382,0.3382,0.3381,0.3381,0.3381,0,0.2772,0.2781,0.2817,0.2822,0.2851,0.2899,0.295,0.3001,0.3092,0.3144,0.3216,0.327,0.3325,0.3376,0.3366,0.3379,0.3415,0.3338,0.3326,0.3079,0.3054,0.3302,0.3292,0.3383,0.3383,0.3382,0.3382,0,0.2729,0.2753,0.277,0.2817,0.2832,0.2856,0.2945,0.2979,0.3079,0.3158,0.319,0.331,0.3375,0.3417,0.3458,0.3428,0.3432,0.3418,0.313,0.3085,0.3324,0.3316,0.3387,0.3387,0.3386,0.3386,0.3385,0,0.2708,0.2707,0.2752,0.2759,0.2778,0.2824,0.2851,0.2956,0.3004,0.3166,0.3192,0.3316,0.3372,0.3443,0.3397,0.3388,0.3437,0.3128,0.3035,0.3348,0.3329,0.3323,0.3316,0.2732,0.2727,0.2722,0.2718,0,0.2668,0.2683,0.2696,0.2712,0.2729,0.2758,0.2811,0.2852,0.2971,0.3048,0.3147,0.3221,0.3306,0.3182,0.3201,0.3152,0.311,0.3036,0.3431,0.2791,0.2739,0.2718,0.2731,0.2677,0.2681,0.2684,0.2686,0.2688,0.2637,0.2635,0.2645,0.2651,0.2667,0.2667,0.2661,0.2717,0.2777,0.2834,0.2987,0.2983,0.3006,0.2899,0.2802,0.272,0.2938,0.2778,0.2787,0.2803,0.2736,0.2688,0.2602,0.2605,0.2609,0.2611,0.2614,0,0.2571,0.2572,0.2577,0.2566,0.253,0.258,0.2601,0.2549,0.2545,0.2629,0.2675,0.2468,0.2402,0.2421,0.2236,0.2248,0.2186,0.215,0.2019,0.2064,0.2103,0.1995,0.1667,0.1664,0.1661,0.1658,0,0,0.2536,0.2499,0.2491,0.2412,0.2406,0.2316,0.2301,0.2246,0.2255,0.2196,0.2165,0.2308,0.2385,0.1992,0.1939,0.1768,0.1904,0.1705,0.2471,0.2365,0.24,0.2481,0.2369,0,0,0,0,0]},{"header":{"parameterUnit":"m.s-1","parameterCategory":2,"la1":30.2991,"la2":30.254,"lo1":-89.0895,"lo2":-89.0444,"dx":0.0017,"dy":0.0017,"nx":28,"ny":28,"refTime":"2022-12-24T09:00:00:Z","depth":"2","parameterNumber":3,"parameterNumberName":"V-component_of_CURRENTS"},"data":[0,0,0,0,0,0,0,0,0,0,0,0,0,0,0,0,0,0,0,0,0,0,0,0,0,0,0,0,0,0,0,0,0,0,0,0,0,0,0,0,0,0,0,0,0,0,0,0,0,0,0,0,0,0,0,0,0,0,0.0165,0.0165,0,0.0124,0.0123,0.0122,0.0087,0.0087,0.0086,0.0086,0.0032,0.0031,0.003,0,0,0,0,0,0,0,0,0,0,0,0,0,0.0162,0.0162,0.0165,0.0165,0.0164,0.0124,0.0123,0.0122,0.0087,0.0087,0.0086,0.0086,0.0032,0.0031,0.0029,0,0,0,0,0,0,0,0,0,0,0,0,0,0.0145,0.0163,0.0165,0.0143,0.0141,0.0124,0.0123,0.0122,0.0087,0.0087,0.0086,0.0086,0.0033,0.0031,0.0029,0.0026,0,0,0.0024,0.0023,0,0,0,0,0,0,0,0,0.0146,0.0145,0.0147,0.0145,0.0142,0.0111,0.0102,0.009,0.0087,0.0106,0.0086,0.0086,0.0059,0.0055,0.0046,0.0023,0.0021,0.0024,0.0022,0.0022,0.0021,0,0,0,0,0,0,0,0.0147,0.0146,0.0147,0.0146,0.0143,0.0117,0.0115,0.0099,0.0083,0.0104,0.0102,0.01,0.0057,0.0048,0.0044,0.002,0.0024,0.0022,0.0021,0.002,-0.0015,-0.0015,0,0,0,0,0,0,0.0159,0.0148,0.0148,0.0146,0.0145,0.0118,0.0115,0.012,0.0084,0.0078,0.01,0.0098,0.0051,0.0046,0.0042,0.0045,0.0022,0.002,0.0019,-0.0015,-0.0015,-0.0015,0,0,0,0,0,0,0.0159,0.016,0.015,0.0146,0.0144,0.0119,0.0125,0.012,0.0112,0.0081,0.0075,0.0098,0.005,0.0045,0.0033,0.0042,0.0019,0.0018,-0.0015,-0.0015,-0.0015,0.0044,0,0,0,0,0,0,0.0159,0.016,0.0166,0.0148,0.0144,0.0149,0.0125,0.0119,0.0112,0.0109,0.0077,0.0072,0.005,0.0036,0.0031,0.0039,0.0016,-0.0015,-0.0015,-0.0015,0.0042,0.0047,0.005,0,0,0,0,0,0.0159,0.0174,0.0167,0.0167,0.0155,0.015,0.0146,0.0125,0.0112,0.0115,0.0092,0.0073,0.0034,0.0035,0.0029,0.0037,-0.0016,-0.0015,-0.0015,0.004,0.0046,0.005,0,0,0,0,0,0,0.0175,0.0171,0.0163,0.0175,0.0166,0.0144,0.0146,0.013,0.0113,0.011,0.0078,0.0071,0.0061,0.0041,0.0043,0.0026,0.0005,0.0004,0.0049,0.0053,0.0057,0.0079,0.0015,0,0,0,0,0,0.0183,0.0194,0.0181,0.0192,0.0191,0.0168,0.0163,0.0149,0.0133,0.0125,0.0101,0.0076,0.0058,0.0051,0.0029,0.0025,-0.0001,0.0024,0.0028,0.0032,0.0045,0.0011,0.0013,-0.0014,-0.0014,-0.0014,0,0,0.0192,0.0192,0.0197,0.0196,0.0187,0.0197,0.0164,0.0163,0.0169,0.0122,0.0122,0.009,0.0059,0.0052,0.0046,0.0038,0.0024,0.0032,0.0036,0.0047,0.0011,0.0014,0.0017,-0.0013,-0.0013,-0.0013,0,0,0.0221,0.0217,0.0237,0.0233,0.0227,0.0218,0.0221,0.0201,0.0191,0.0184,0.0151,0.0129,0.01,0.0082,0.0069,0.0084,0.0045,0.0071,0.0114,0.0081,0.0083,0.0085,0.0052,0.005,0.0076,0.0077,0.0077,0,0.0231,0.0257,0.024,0.0257,0.0263,0.0233,0.0255,0.0243,0.022,0.0218,0.0192,0.0147,0.0117,0.0114,0.0115,0.0095,0.0068,0.01,0.0087,0.0088,0.0089,0.0055,0.0052,0.0079,0.0079,0.0079,0.0078,0,0.0275,0.0293,0.0306,0.0323,0.0323,0.0337,0.0322,0.0322,0.0302,0.0282,0.0265,0.0217,0.0193,0.0173,0.0149,0.0142,0.0118,0.0095,0.0079,0.0095,0.0058,0.0054,0.0084,0.0082,0.0082,0.0081,0,0,0.0309,0.0334,0.0339,0.0361,0.036,0.037,0.0385,0.0391,0.0408,0.0362,0.0372,0.0321,0.0285,0.0268,0.0226,0.0194,0.0167,0.0152,0.0149,0.0127,0.0092,0.0067,0.0059,0.0139,0.0139,0.0139,0.0062,0,0.0353,0.0405,0.0401,0.045,0.0478,0.046,0.0483,0.0478,0.046,0.046,0.04,0.0386,0.0324,0.0311,0.0271,0.0197,0.016,0.019,0.0073,0.007,0.0051,0.0056,0.0067,-0.0,0.0058,0.0058,0.0057,0,0.0403,0.0433,0.0491,0.0529,0.054,0.0559,0.0592,0.0609,0.0595,0.0577,0.0542,0.0488,0.0441,0.0381,0.0266,0.0286,0.0198,0.0131,0.0126,0.0083,0.0038,-0.0008,-0.001,0.005,0.0051,0.0051,0.0052,0,0.0449,0.0498,0.0551,0.0562,0.0597,0.062,0.064,0.0643,0.0675,0.0651,0.0661,0.0578,0.055,0.0431,0.0282,0.0275,0.0145,0.0118,0.0011,0.0007,-0.0014,-0.0019,0.0033,0.0034,0.0034,0.0034,0.0034,0,0.0504,0.0544,0.0579,0.0605,0.0681,0.0676,0.0746,0.0752,0.077,0.082,0.0728,0.074,0.056,0.046,0.0314,0.0152,0.0166,0.0023,-0.0011,0.0005,0.0004,0.0024,0.0024,0.0031,0.0032,0.0032,0.0033,0,0.0549,0.057,0.0636,0.0683,0.0708,0.0761,0.0831,0.0878,0.0883,0.0945,0.0942,0.0862,0.0736,0.0541,0.0345,0.0207,0.0044,-0.0022,0.0008,-0.0021,-0.0079,-0.0075,-0.0135,-0.0136,-0.0137,-0.0138,-0.0139,0,0.0578,0.062,0.07,0.0749,0.0773,0.0851,0.0912,0.094,0.0997,0.1029,0.1068,0.096,0.0908,0.0604,0.0324,0.0059,0.0031,-0.0102,-0.0113,-0.0067,-0.0095,-0.0089,-0.0084,-0.0124,-0.0125,-0.0125,-0.0126,0,0.0635,0.0664,0.0719,0.0825,0.0896,0.0991,0.1074,0.114,0.1187,0.1236,0.1272,0.1229,0.0938,0.0666,0.0291,0.0111,-0.0059,-0.012,-0.0084,-0.0079,-0.0063,-0.0088,-0.0082,-0.013,-0.013,-0.013,-0.0129,-0.0129,0.0678,0.0731,0.0808,0.0911,0.0999,0.1116,0.1205,0.1288,0.1399,0.1462,0.1414,0.1341,0.1034,0.0548,0.0235,-0.0103,-0.0078,-0.0193,-0.0189,-0.0185,-0.0166,-0.0152,-0.0234,-0.0234,-0.0234,-0.0234,-0.0234,0,0.0734,0.0793,0.0887,0.1009,0.1111,0.1154,0.1307,0.1386,0.1518,0.154,0.1549,0.1247,0.0937,0.0583,0.0085,-0.0194,-0.0216,-0.0286,-0.0247,-0.024,-0.0234,-0.0216,-0.0298,-0.0299,-0.03,-0.0301,0,0,0.0763,0.0858,0.0908,0.1083,0.1171,0.132,0.1416,0.152,0.1571,0.1599,0.1536,0.1418,0.1015,0.0646,0.0261,-0.0019,-0.0066,-0.008,0.0,0.01,0.0109,-0.0154,-0.0115,0,0,0,0,0]}],[{"header":{"parameterUnit":"m.s-1","parameterCategory":2,"la1":30.2991,"la2":30.254,"lo1":-89.0895,"lo2":-89.0444,"dx":0.0017,"dy":0.0017,"nx":28,"ny":28,"refTime":"2022-12-24T09:00:00:Z","depth":"4","parameterNumber":2,"parameterNumberName":"U-component_of_CURRENTS"},"data":[0,0,0,0,0,0,0,0,0,0,0,0,0,0,0,0,0,0,0,0,0,0,0,0,0,0,0,0,0,0,0,0,0,0,0,0,0,0,0,0,0,0,0,0,0,0,0,0,0,0,0,0,0,0,0,0,0,0,0.1653,0.1653,0,0.1704,0.1705,0.1705,0.1749,0.175,0.1751,0.1751,0.1801,0.1801,0.1802,0,0,0,0,0,0,0,0,0,0,0,0,0,0.1589,0.1589,0.1653,0.1654,0.1654,0.1704,0.1705,0.1705,0.1749,0.175,0.1751,0.1752,0.18,0.1801,0.1802,0,0,0,0,0,0,0,0,0,0,0,0,0,0.1623,0.159,0.1653,0.1684,0.1688,0.1704,0.1705,0.1705,0.1749,0.175,0.1751,0.1752,0.18,0.1801,0.1802,0.1786,0,0,0.1805,0.1805,0,0,0,0,0,0,0,0,0.1621,0.1625,0.1679,0.1682,0.1686,0.1724,0.17,0.1733,0.1749,0.1723,0.1751,0.1753,0.1776,0.1779,0.1782,0.1789,0.1791,0.1805,0.1806,0.1806,0.1806,0,0,0,0,0,0,0,0.1619,0.1623,0.1671,0.168,0.1684,0.1695,0.1701,0.1706,0.174,0.1725,0.1729,0.1739,0.1777,0.1781,0.1784,0.1791,0.1805,0.1806,0.1807,0.1807,0.1906,0.1908,0,0,0,0,0,0,0.1617,0.1621,0.1669,0.1672,0.1659,0.1695,0.1702,0.1708,0.1741,0.1747,0.1738,0.1741,0.1779,0.1783,0.1786,0.1872,0.1806,0.1807,0.1808,0.1904,0.1906,0.1909,0,0,0,0,0,0,0.1615,0.162,0.1667,0.165,0.1657,0.1695,0.1702,0.1709,0.1754,0.1751,0.1757,0.1781,0.178,0.1784,0.1831,0.1871,0.1807,0.1808,0.1902,0.1905,0.1908,0.1979,0,0,0,0,0,0,0.1613,0.1619,0.1642,0.165,0.1658,0.1704,0.1702,0.1709,0.1756,0.1762,0.1789,0.1792,0.1781,0.183,0.1832,0.1871,0.1809,0.1899,0.1903,0.1907,0.1974,0.1984,0.1993,0,0,0,0,0,0.161,0.1628,0.1643,0.165,0.1682,0.1706,0.1711,0.174,0.1758,0.1783,0.1807,0.1794,0.1856,0.1832,0.1834,0.1874,0.1897,0.1902,0.1906,0.197,0.1982,0.1993,0,0,0,0,0,0,0.1613,0.1635,0.1651,0.1676,0.1705,0.1715,0.1747,0.1763,0.1801,0.182,0.1815,0.182,0.1878,0.1868,0.1842,0.1916,0.1876,0.1881,0.1924,0.1935,0.1944,0.1955,0.181,0,0,0,0,0,0.1624,0.1647,0.1668,0.1695,0.1713,0.1739,0.1761,0.1781,0.1806,0.1826,0.1844,0.1868,0.1891,0.1908,0.1924,0.196,0.1956,0.199,0.1999,0.2007,0.2019,0.2047,0.206,0.1924,0.1924,0.1924,0,0,0.1633,0.1651,0.1665,0.1699,0.1725,0.1753,0.1756,0.1802,0.1834,0.1824,0.1887,0.1904,0.191,0.1955,0.1979,0.1956,0.2045,0.2013,0.202,0.2027,0.2053,0.2067,0.2078,0.1927,0.1926,0.1926,0,0,0.1651,0.1683,0.1706,0.1733,0.1781,0.1794,0.1817,0.1853,0.1886,0.1938,0.1945,0.1991,0.2022,0.2035,0.2043,0.2114,0.2096,0.2126,0.2179,0.2206,0.2218,0.2227,0.224,0.225,0.2127,0.2127,0.2127,0,0.1668,0.1694,0.1719,0.1749,0.1781,0.1817,0.1852,0.1883,0.1933,0.1966,0.1973,0.2049,0.2058,0.2108,0.214,0.2135,0.2145,0.2132,0.2218,0.2227,0.2236,0.2246,0.2257,0.2131,0.2131,0.213,0.213,0,0.1689,0.1729,0.175,0.1797,0.1833,0.1875,0.1916,0.1967,0.2013,0.204,0.2121,0.214,0.2186,0.2198,0.2193,0.2265,0.225,0.2227,0.2186,0.2254,0.2261,0.227,0.2137,0.2136,0.2134,0.2133,0,0,0.168,0.1751,0.1764,0.1796,0.1868,0.1892,0.1964,0.2027,0.2081,0.2139,0.2206,0.226,0.2288,0.23,0.2306,0.2334,0.2405,0.2319,0.2318,0.2325,0.2467,0.2309,0.2304,0.2401,0.2403,0.2405,0.2447,0,0.1697,0.1753,0.179,0.1856,0.1889,0.1953,0.201,0.2077,0.214,0.2212,0.2258,0.2324,0.2319,0.2361,0.2391,0.2408,0.2435,0.2396,0.2406,0.2406,0.2251,0.2311,0.2412,0.2453,0.2456,0.2457,0.2458,0,0.1699,0.174,0.1806,0.1887,0.1911,0.1962,0.207,0.2128,0.2231,0.2284,0.2364,0.2401,0.2478,0.2454,0.2521,0.2501,0.2501,0.2498,0.2499,0.2332,0.2265,0.2372,0.2475,0.2474,0.2472,0.2471,0.247,0,0.166,0.1747,0.1802,0.1832,0.1929,0.1988,0.2055,0.2161,0.2228,0.2348,0.2409,0.2488,0.2549,0.257,0.2587,0.257,0.2635,0.2599,0.2451,0.244,0.2537,0.2526,0.2638,0.2638,0.2638,0.2638,0.2638,0,0.1639,0.1688,0.1796,0.1823,0.1904,0.1984,0.2086,0.2163,0.2285,0.2354,0.2454,0.2509,0.2588,0.263,0.262,0.2565,0.2665,0.2471,0.2443,0.2566,0.2558,0.2543,0.2532,0.264,0.2639,0.2639,0.2639,0,0.158,0.1651,0.172,0.1841,0.1886,0.1951,0.2105,0.2162,0.2298,0.2394,0.2442,0.2563,0.2608,0.2649,0.2683,0.2595,0.2562,0.2515,0.2655,0.2632,0.234,0.2333,0.235,0.2345,0.234,0.2337,0.2334,0,0.1549,0.158,0.1722,0.1768,0.1833,0.1945,0.2008,0.2156,0.2215,0.2394,0.2415,0.253,0.2581,0.2501,0.2557,0.252,0.2483,0.245,0.2385,0.2342,0.2314,0.2313,0.2311,0.2327,0.2326,0.2324,0.2323,0,0.149,0.156,0.1618,0.1715,0.1794,0.187,0.1978,0.2013,0.2164,0.2304,0.233,0.2347,0.2388,0.2394,0.2389,0.2356,0.2462,0.2404,0.2412,0.235,0.2314,0.229,0.2293,0.2308,0.231,0.2312,0.2313,0,0.1454,0.1481,0.1566,0.1636,0.1727,0.176,0.1836,0.1891,0.1969,0.2153,0.2154,0.2256,0.2366,0.231,0.2303,0.2264,0.2217,0.2127,0.2148,0.2166,0.2083,0.2008,0.1893,0,0,0,0,0,0.1402,0.1413,0.1473,0.1533,0.1615,0.1667,0.1787,0.1861,0.2006,0.1966,0.2057,0.2077,0.2073,0.213,0.2048,0.2218,0.2229,0.2112,0.2138,0.2224,0.2242,0.2159,0,0,0,0,0,0,0.1364,0.1416,0.1432,0.1427,0.1446,0.1515,0.1586,0.1687,0.1678,0.1831,0.1838,0.1945,0.1973,0.209,0.2004,0.2019,0.1989,0.218,0.2174,0.2214,0.223,0.2244,0.2165,0,0,0,0,0]},{"header":{"parameterUnit":"m.s-1","parameterCategory":2,"la1":30.2991,"la2":30.254,"lo1":-89.0895,"lo2":-89.0444,"dx":0.0017,"dy":0.0017,"nx":28,"ny":28,"refTime":"2022-12-24T09:00:00:Z","depth":"4","parameterNumber":3,"parameterNumberName":"V-component_of_CURRENTS"},"data":[0,0,0,0,0,0,0,0,0,0,0,0,0,0,0,0,0,0,0,0,0,0,0,0,0,0,0,0,0,0,0,0,0,0,0,0,0,0,0,0,0,0,0,0,0,0,0,0,0,0,0,0,0,0,0,0,0,0,0.0277,0.0277,0,0.0259,0.0258,0.0258,0.0248,0.0249,0.0249,0.0249,0.0231,0.0231,0.023,0,0,0,0,0,0,0,0,0,0,0,0,0,0.0263,0.0264,0.0277,0.0277,0.0276,0.0259,0.0258,0.0258,0.0248,0.0249,0.0249,0.0249,0.0231,0.0231,0.023,0,0,0,0,0,0,0,0,0,0,0,0,0,0.0259,0.0264,0.0277,0.027,0.0269,0.0259,0.0258,0.0258,0.0248,0.0249,0.0249,0.0249,0.0231,0.0231,0.023,0.0224,0,0,0.0228,0.0227,0,0,0,0,0,0,0,0,0.0259,0.0259,0.0271,0.027,0.027,0.0256,0.0247,0.0247,0.0248,0.0256,0.0249,0.0249,0.024,0.0239,0.0234,0.0223,0.0223,0.0228,0.0227,0.0227,0.0227,0,0,0,0,0,0,0,0.026,0.026,0.0269,0.0271,0.027,0.0254,0.0254,0.0247,0.0247,0.0255,0.0254,0.0253,0.0239,0.0235,0.0234,0.0222,0.0228,0.0227,0.0226,0.0226,0.0202,0.0202,0,0,0,0,0,0,0.0265,0.026,0.027,0.0268,0.0265,0.0255,0.0254,0.026,0.0247,0.0246,0.0253,0.0253,0.0236,0.0235,0.0233,0.0234,0.0227,0.0226,0.0226,0.0202,0.0202,0.0202,0,0,0,0,0,0,0.0265,0.0267,0.027,0.0264,0.0263,0.0255,0.0261,0.026,0.0259,0.0246,0.0244,0.0255,0.0236,0.0234,0.0231,0.0233,0.0226,0.0225,0.0202,0.0202,0.0202,0.0232,0,0,0,0,0,0,0.0265,0.0267,0.0274,0.0265,0.0264,0.027,0.0261,0.0259,0.0259,0.0258,0.0247,0.0245,0.0236,0.0233,0.0231,0.0232,0.0224,0.0203,0.0202,0.0202,0.0231,0.0233,0.0234,0,0,0,0,0,0.0265,0.0276,0.0275,0.0276,0.0274,0.027,0.0268,0.0262,0.0259,0.0261,0.0253,0.0246,0.0228,0.0232,0.023,0.0231,0.0203,0.0202,0.0202,0.023,0.0232,0.0234,0,0,0,0,0,0,0.0274,0.0276,0.0274,0.0286,0.0281,0.0269,0.0273,0.0265,0.026,0.0263,0.0248,0.0246,0.0242,0.0231,0.0236,0.0221,0.0212,0.0212,0.0235,0.0236,0.0238,0.0251,0.0224,0,0,0,0,0,0.028,0.0291,0.0284,0.0294,0.0294,0.0284,0.0282,0.0277,0.027,0.0268,0.0258,0.0247,0.0237,0.0234,0.0223,0.022,0.0196,0.0216,0.0218,0.0219,0.0227,0.0188,0.0186,0.02,0.02,0.02,0,0,0.0286,0.0289,0.0295,0.0297,0.0294,0.03,0.0283,0.0285,0.029,0.0267,0.0272,0.0254,0.0237,0.0232,0.0229,0.0225,0.02,0.0219,0.022,0.0227,0.0187,0.0186,0.0184,0.02,0.02,0.02,0,0,0.0305,0.0309,0.0323,0.0321,0.0321,0.0316,0.0318,0.0308,0.0305,0.0303,0.0286,0.027,0.0258,0.0243,0.0234,0.0236,0.0209,0.0231,0.0251,0.0212,0.0211,0.021,0.0171,0.0166,0.0232,0.0232,0.0232,0,0.0312,0.0332,0.0325,0.0336,0.0341,0.0326,0.034,0.0333,0.0322,0.032,0.031,0.028,0.0263,0.0253,0.0252,0.0241,0.0215,0.0248,0.0215,0.0213,0.0211,0.0171,0.0165,0.0233,0.0233,0.0233,0.0233,0,0.0339,0.0355,0.0364,0.0377,0.0378,0.0389,0.038,0.0381,0.0373,0.0358,0.0344,0.0313,0.0297,0.0282,0.027,0.0249,0.0233,0.0221,0.0213,0.0212,0.017,0.0163,0.0235,0.0235,0.0234,0.0234,0,0,0.0358,0.038,0.0384,0.0401,0.0403,0.041,0.042,0.0421,0.0432,0.0401,0.0403,0.0367,0.0343,0.0332,0.0304,0.0268,0.0225,0.0244,0.0241,0.021,0.0138,0.0123,0.0114,0.0207,0.0206,0.0205,0.0112,0,0.0385,0.042,0.042,0.0455,0.0474,0.0467,0.0481,0.0476,0.0463,0.0459,0.0413,0.0403,0.0364,0.0358,0.0314,0.0254,0.021,0.0251,0.014,0.0137,0.0128,0.0107,0.0203,0.0107,0.0105,0.0104,0.0103,0,0.0413,0.0435,0.0476,0.0507,0.0515,0.0531,0.0553,0.0565,0.0548,0.0535,0.0504,0.0467,0.0418,0.0384,0.0269,0.0298,0.0223,0.0165,0.016,0.0135,0.011,0.0109,0.009,0.0091,0.0092,0.0093,0.0094,0,0.0438,0.0475,0.0515,0.0524,0.0553,0.0573,0.0591,0.0588,0.061,0.0587,0.0589,0.0515,0.049,0.0385,0.0264,0.0267,0.0129,0.0117,0.0028,0.0026,0.0055,0.0057,0.0028,0.0028,0.0028,0.0028,0.0029,0,0.0466,0.0497,0.0535,0.0555,0.0613,0.0614,0.0666,0.067,0.0678,0.0702,0.0637,0.0628,0.0489,0.0394,0.0276,0.0131,0.0134,0.0028,-0.0,0.0068,0.0073,0.0049,0.0053,0.0025,0.0026,0.0026,0.0027,0,0.0486,0.0509,0.0561,0.0605,0.0629,0.0672,0.0733,0.0762,0.0765,0.0794,0.0792,0.0712,0.0585,0.0432,0.0256,0.0156,0.0013,-0.0042,0.0041,0.002,-0.0069,-0.0062,-0.0147,-0.0148,-0.0149,-0.015,-0.0151,0,0.0498,0.053,0.0606,0.0647,0.0672,0.0739,0.0786,0.0812,0.0843,0.0842,0.0855,0.0749,0.0672,0.0414,0.0248,0.001,-0.0024,-0.0099,-0.0086,-0.0068,-0.0087,-0.0079,-0.0072,-0.0152,-0.0153,-0.0153,-0.0153,0,0.0523,0.0556,0.0599,0.0689,0.075,0.0824,0.0888,0.0917,0.0943,0.0945,0.0898,0.0764,0.0618,0.0414,0.0225,0.0057,-0.005,-0.0111,-0.011,-0.0098,-0.0077,-0.0092,-0.0084,-0.0157,-0.0157,-0.0156,-0.0156,0,0.0545,0.0583,0.0648,0.0726,0.0808,0.088,0.0914,0.0942,0.0975,0.0963,0.0943,0.0784,0.0692,0.0437,0.0267,0.0095,0.0053,-0.0,-0.0006,-0.0003,0.0064,0.0114,0.0065,0,0,0,0,0,0.0562,0.0605,0.0677,0.076,0.0839,0.0893,0.0969,0.0992,0.1015,0.0986,0.0966,0.0825,0.057,0.0464,0.0288,0.0241,0.0021,0.0029,-0.0043,-0.0179,-0.0174,-0.0121,0,0,0,0,0,0,0.0573,0.064,0.0675,0.0775,0.0835,0.0928,0.098,0.0997,0.0981,0.0973,0.084,0.0778,0.053,0.0666,0.0283,0.0233,0.0162,-0.0087,-0.0091,-0.0181,-0.0177,-0.0173,-0.0117,0,0,0,0,0]}]]